Weather History for Cardak, Turkey

Change the Weather History Date:

Tuesday, January 8, 2013

  Actual Average Record
Temperature  
Mean Temperature 20 °F -  
Max Temperature 26 °F - - ()
Min Temperature 15 °F - - ()
Degree Days  
Heating Degree Days 44    
Moisture  
Dew Point 18 °F    
Average Humidity 80    
Maximum Humidity 100    
Minimum Humidity 50    
Precipitation  
Precipitation 0.00 in - - ()
Sea Level Pressure  
Sea Level Pressure 29.87 in    
Wind  
Wind Speed 6 mph ()    
Max Wind Speed 12 mph    
Max Gust Speed -    
Visibility 5.5 miles    
Events Snow    
T = Trace of Precipitation, MM = Missing Value Source: Averaged Metar Reports

Daily Weather History Graph

Daily Weather History Graph

Search for Another Location

Airport:

Trip Planner

Search our weather history database for the weather conditions in past years. The results will help you decide how hot, cold, wet, or windy it might be!

Date:

Astronomy

Jan. 08, 2013 Rise Set
Actual Time 7:16 AM EET 4:59 PM EET
Civil Twilight 6:47 AM EET 5:28 PM EET
Nautical Twilight 6:15 AM EET 6:00 PM EET
Astronomical Twilight 5:43 AM EET 6:32 PM EET
Moon 3:27 AM EET (1/8) 1:43 PM EET (1/8)
Length of Visible Light 10h 40m
Length of Day
9h 42m
Waning Crescent, 16% of the Moon is Illuminated
Jan 8
Waning Crescent
Jan 11
New
Jan 19
First Quarter
Jan 27
Full
Feb 3
Last Quarter

Hourly Weather History & Observations

Time (EET) Temp. Windchill Dew Point Humidity Pressure Visibility Wind Dir Wind Speed Gust Speed Precip Events Conditions
12:50 AM 23.0 °F - 19.4 °F 86% 29.80 in 6.2 mi Variable 2.3 mph - N/A   Mostly Cloudy
1:50 AM 24.8 °F 19.1 °F 23.0 °F 93% 29.83 in 6.2 mi WSW 4.6 mph - N/A   Mostly Cloudy
2:50 AM 24.8 °F 15.3 °F 23.0 °F 93% 29.83 in 6.2 mi WNW 9.2 mph - N/A   Mostly Cloudy
3:50 AM 24.8 °F 15.3 °F 23.0 °F 93% 29.83 in 4.3 mi West 9.2 mph - N/A Snow Light Snow Showers
4:50 AM 23.0 °F 12.4 °F 23.0 °F 100% 29.80 in 3.7 mi West 10.4 mph - N/A Snow Snow Showers
5:50 AM 23.0 °F 11.7 °F 23.0 °F 100% 29.80 in 2.5 mi West 11.5 mph - N/A Snow Snow
6:50 AM 23.0 °F 11.7 °F 23.0 °F 100% 29.83 in 1.3 mi West 11.5 mph - N/A Snow Snow
7:50 AM 23.0 °F 11.7 °F 23.0 °F 100% 29.83 in 6.2 mi West 11.5 mph - N/A   Mostly Cloudy
8:50 AM 24.8 °F 14.6 °F 21.2 °F 86% 29.86 in 6.2 mi West 10.4 mph - N/A   Mostly Cloudy
9:50 AM 24.8 °F 16.1 °F 19.4 °F 80% 29.89 in 6.2 mi WNW 8.1 mph - N/A   Mostly Cloudy
10:50 AM 26.6 °F 20.0 °F 17.6 °F 69% 29.89 in 6.2 mi North 5.8 mph - N/A   Mostly Cloudy
11:50 AM 26.6 °F - 17.6 °F 69% 29.89 in 6.2 mi Calm Calm - N/A Snow Light Snow
12:50 PM 24.8 °F 14.0 °F 17.6 °F 74% 29.86 in 6.2 mi NE 11.5 mph - N/A   Mostly Cloudy
1:50 PM 26.6 °F 17.5 °F 21.2 °F 80% 29.86 in 3.7 mi WNW 9.2 mph - N/A Snow Light Snow
2:50 PM 26.6 °F 17.5 °F 17.6 °F 69% 29.86 in 6.2 mi WNW 9.2 mph - N/A   Mostly Cloudy
3:50 PM 26.6 °F - 17.6 °F 69% 29.86 in 6.2 mi Variable 2.3 mph - N/A   Mostly Cloudy
4:50 PM 24.8 °F - 15.8 °F 69% 29.89 in 6.2 mi Variable 1.2 mph - N/A   Mostly Cloudy
5:50 PM 23.0 °F 15.8 °F 15.8 °F 74% 29.89 in 6.2 mi West 5.8 mph - N/A   Mostly Cloudy
6:50 PM 24.8 °F 16.9 °F 8.6 °F 50% 29.92 in 6.2 mi NNE 6.9 mph - N/A   Mostly Cloudy
8:50 PM 19.4 °F 11.5 °F 10.4 °F 68% 29.92 in 6.2 mi NW 5.8 mph - N/A   Mostly Cloudy
9:50 PM 19.4 °F 11.5 °F 10.4 °F 68% 29.92 in 6.2 mi WNW 5.8 mph - N/A   Mostly Cloudy
10:50 PM 15.8 °F 4.2 °F 10.4 °F 79% 29.92 in 6.2 mi WNW 9.2 mph - N/A   Mostly Cloudy
11:50 PM 15.8 °F 7.2 °F 8.6 °F 73% 29.92 in 6.2 mi WNW 5.8 mph - N/A   Mostly Cloudy